Location: Bli��� Lhota
(48.7570°N, 14.0120°E)
Time: 09:01:13
(UTC+00:00)

Iridium 4 Rocket - Pass Details

Date: 18 September 2020
Orbit: 585 x 904 km, 86.9° (Epoch: 24 October)

Event Time Altitude Azimuth Distance (km) Brightness Sun altitude
Rises 17:41:04 0° 177° (S) 3,060 6.5 -6.0°
Reaches altitude 10° 17:43:14 10° 176° (S) 2,194 5.7 -6.3°
Maximum altitude 17:48:08 78° 90° (E) 789 3.5 -7.1°
Drops below altitude 10° 17:53:34 10° 5° (N) 2,422 6.2 -8.0°
Sets 17:56:04 0° 5° (N) 3,405 7.0 -8.4°
